Location: Castelbiague
(43.0361°N, 0.9246°E)
Time: 11:23:54
(UTC+00:00)

Meteor 1-4 Rocket - Pass Details

Date: 22 October 2021
Orbit: 446 x 496 km, 81.2° (Epoch: 29 November)

Event Time Altitude Azimuth Distance (km) Brightness Sun altitude
Rises 05:42:23 0° 349° (NNW) 2,464 5.9 -7.3°
Reaches altitude 10° 05:44:27 10° 348° (NNW) 1,591 5.0 -6.9°
Maximum altitude 05:47:55 80° 261° (W) 467 2.4 -6.3°
Drops below altitude 10° 05:51:24 10° 175° (S) 1,597 5.4 -5.7°
Sets 05:53:29 0° 174° (S) 2,475 6.4 -5.3°
